Location: McFarlands Corners
(41.4117°N, 81.3382°W)
Time: 14:08:22
(UTC+00:00)

Tiros 1 despin weight - Pass Details

Date: 23 February 2026
Orbit: 556 x 593 km, 48.2° (Epoch: 11 March)

Event Time Altitude Azimuth Distance (km) Brightness Sun altitude
Rises 23:46:40 0° 297° (WNW) 2,735 ? -7.8°
Reaches altitude 10° 23:48:56 10° 295° (WNW) 1,837 ? -8.2°
Maximum altitude 23:53:06 68° 212° (SSW) 599 ? -9.0°
Drops below altitude 10° 23:57:15 10° 130° (SE) 1,833 ? -9.8°
Enters shadow 23:58:10 - 129° (SE) 2,195 ? -9.9°
Sets 23:59:30 0° 128° (SE) 2,729 - -10.2°
